Wind_Gust
9 12 14 21 19 8 6 9 12 11 10 11 11 9 12 11 15 10 15 13 9 11 14 19 18 19 22 24 22 18 8 7 12 14 11 19 20 21 20 22 21 20 22 18 19 17 18 18 17 17 18 21 21 18 19 20 19 14 16 13 12 8 13 16 14 15 17 14 11 8 10 11 9 11 8 8 5 7 7 7 8 7 8 8 8 7
8 13 22 15 7 9 11 10 9 11 11 14 14 12 17 9 16 16 21 12 6 12 13 20 19 19 27 25 21 18 7 9 11 18 20 19 20 22 23 21 20 16 13 17 18 16 17 18 17 18 20 22 24 19 20 23 21 14 13 12 12 9 11 13 15 19 18 13 15 16 14 9 10 9 9 7 5 7 6 6 6 6 8 8 8 7
9 24 15 10 13 10 10 11 10 11 13 15 15 15 16 21 15 21 16 5 5 7 24 22 21 22 26 23 20 17 17 16 15 24 29 29 23 19 20 21 20 19 18 17 17 17 17 19 19 19 19 21 26 21 23 23 17 14 13 11 11 11 13 13 13 15 15 11 10 11 12 10 9 5 7 8 7 7 8 6 6 7 8 10 9 9
13 16 21 16 9 10 12 11 11 9 10 14 14 9 17 16 10 22 10 9 16 14 17 16 26 24 22 17 20 19 17 15 10 20 27 33 32 26 26 27 26 22 23 21 19 17 17 21 21 18 18 20 21 20 20 20 16 16 16 14 13 13 12 14 13 13 11 8 7 4 8 7 10 11 8 8 7 7 7 7 8 7 8 9 9 8
20 20 4 11 11 13 16 13 10 10 15 11 12 15 18 17 15 14 14 15 12 22 6 7 9 10 7 15 17 17 4 7 6 11 22 22 27 24 20 19 27 28 23 21 18 15 17 17 16 18 26 26 23 20 17 18 18 19 19 18 18 16 16 13 12 13 8 8 7 8 9 9 11 9 10 10 7 8 8 9 8 10 6 7 8 8
18 26 8 9 16 13 13 15 16 11 13 13 11 19 21 21 15 10 9 11 19 20 12 10 10 13 10 4 12 10 6 6 5 19 21 18 12 19 22 18 13 15 14 18 19 23 24 28 23 19 24 18 16 15 8 14 15 18 18 15 14 13 14 15 13 11 14 13 15 14 15 14 11 12 12 12 12 8 9 12 6 6 5 5 6 7
23 17 10 15 15 16 16 19 18 12 16 12 17 12 19 15 7 6 9 6 11 13 15 6 8 10 11 4 4 4 2 4 4 9 19 20 19 21 23 19 19 22 22 21 21 25 29 25 26 26 27 22 20 20 24 16 14 13 12 13 14 15 14 13 11 12 15 14 15 16 15 14 15 15 9 8 8 10 6 6 7 8 6 7 8 5
15 16 13 14 12 17 16 16 22 14 13 17 8 8 11 9 4 6 9 6 16 9 16 6 8 10 5 11 7 2 5 7 6 12 7 8 15 19 19 21 22 23 21 27 27 26 25 24 22 21 21 23 23 16 15 15 11 12 14 13 11 7 9 10 10 13 17 17 15 14 13 14 14 13 11 10 9 6 5 8 7 8 7 7 7 7
10 15 13 14 13 16 21 24 17 12 20 16 8 9 8 9 7 7 8 11 11 5 19 16 8 7 7 13 10 4 6 9 17 17 14 17 21 21 23 22 25 21 24 24 23 23 23 24 24 25 24 21 25 25 16 17 16 15 17 17 13 11 10 10 11 14 15 16 16 17 15 13 11 11 11 9 10 10 7 8 6 8 6 5 3 7
14 16 18 20 14 18 20 22 20 16 16 12 9 7 8 6 7 6 8 10 7 7 13 11 5 8 10 11 10 8 2 10 15 13 14 17 23 24 25 23 23 23 21 19 22 21 22 21 19 18 20 21 24 24 19 14 15 17 18 17 14 11 11 11 11 13 13 14 15 16 14 15 11 12 9 11 11 10 7 9 7 7 8 5 5 3
21 15 13 18 20 22 16 21 22 18 19 6 6 8 11 7 6 4 8 11 5 11 14 11 3 8 9 8 4 7 6 12 20 13 11 19 21 22 23 26 23 22 22 22 21 21 20 20 21 17 14 17 22 25 24 21 20 19 19 17 14 13 11 11 12 14 14 12 12 15 13 15 15 13 13 12 10 8 7 10 6 7 6 6 7 6
16 12 15 13 14 14 10 7 6 14 9 5 9 10 6 14 7 5 9 4 10 11 13 11 7 8 8 11 14 13 13 19 31 23 21 22 24 25 20 20 21 22 23 26 27 22 20 15 14 13 13 16 19 22 25 22 21 20 18 15 15 12 12 11 11 12 13 11 11 12 14 16 16 16 16 16 13 11 10 9 9 6 8 6 6 6
11 15 10 13 8 14 12 13 10 4 5 6 3 8 8 11 9 9 8 9 10 14 9 6 11 5 4 4 12 16 8 23 15 30 32 28 24 21 19 20 20 21 22 24 25 24 20 22 21 20 21 19 17 23 26 26 22 19 18 19 18 15 11 10 8 11 10 10 11 14 15 14 16 16 15 14 12 9 12 10 9 7 9 7 8 7
17 15 9 10 6 10 11 14 8 6 5 3 9 10 8 11 9 8 8 7 6 10 10 4 3 6 6 7 17 15 11 29 23 16 18 27 27 26 23 19 18 19 21 21 22 20 20 21 20 22 24 22 20 19 21 22 22 19 17 16 16 13 8 4 5 8 10 9 10 11 13 13 14 14 14 12 12 11 11 11 11 11 10 9 8 6
9 16 17 5 10 6 11 15 16 12 6 12 9 15 16 15 16 10 8 8 8 13 8 8 11 10 8 6 13 15 13 24 28 27 20 14 18 16 17 17 17 19 17 19 19 18 18 18 19 22 20 19 18 15 12 12 14 15 12 11 12 12 7 4 5 5 8 9 6 6 6 10 10 13 12 12 11 12 11 10 11 10 9 11 8 11
11 18 16 10 9 8 12 10 12 7 7 8 6 11 10 17 14 11 13 10 4 3 4 7 6 3 14 6 13 18 17 20 18 23 25 19 12 12 15 17 19 17 17 16 16 14 11 11 12 15 15 15 10 8 7 8 13 13 12 11 10 11 8 4 4 5 7 6 6 6 7 9 11 11 11 10 10 10 11 11 12 9 9 9 10 7
7 16 9 11 11 14 17 9 11 12 15 10 5 9 16 13 16 8 4 2 10 9 5 5 14 16 12 16 16 20 18 18 19 17 17 19 15 12 13 11 9 11 16 17 16 17 16 10 7 9 11 8 8 9 8 2 7 13 14 13 13 12 8 6 4 6 7 7 7 9 8 10 11 12 12 13 9 8 8 10 11 11 9 9 10 9
9 15 10 4 9 10 11 14 9 14 16 7 8 15 5 6 10 15 15 6 6 9 11 6 9 8 7 11 3 17 19 12 20 20 18 15 13 11 9 6 7 9 10 11 11 9 10 9 8 6 5 6 7 5 8 5 5 7 11 11 13 13 11 6 5 4 4 6 5 7 5 8 9 8 9 10 10 10 11 10 11 11 10 7 9 10
9 20 20 13 13 11 4 3 6 5 10 16 15 5 7 9 8 10 12 5 8 9 9 7 5 3 4 6 6 7 18 20 21 20 19 17 12 10 8 7 5 4 6 9 11 11 8 7 5 5 7 8 8 8 8 8 7 6 6 9 11 12 11 8 5 3 5 5 6 8 8 10 10 10 10 10 12 12 14 12 11 10 9 7 6 9
5 12 20 10 3 4 8 9 6 13 12 4 4 6 4 15 7 5 15 12 16 9 5 9 7 7 4 4 5 6 5 16 20 19 19 18 13 11 10 9 10 7 9 11 13 13 12 11 9 8 8 9 8 9 9 9 9 9 8 10 12 11 10 8 8 7 8 8 6 5 6 9 11 11 11 12 14 14 14 12 12 11 8 10 7 6
7 4 13 13 7 3 8 11 6 4 7 11 7 5 7 6 8 11 5 8 11 17 14 13 7 6 5 6 6 7 7 13 17 21 17 17 15 11 9 7 7 9 11 13 13 14 15 13 12 11 9 9 9 10 9 10 10 9 10 9 9 12 10 10 9 11 14 19 21 22 18 12 11 11 11 11 13 14 12 11 11 11 10 8 7 8
7 7 8 12 10 4 9 14 11 15 13 9 8 7 7 4 12 9 14 9 7 14 15 16 14 6 7 10 10 9 5 11 13 18 17 17 14 12 10 10 8 9 11 12 13 13 15 15 13 11 11 10 11 9 10 8 10 10 10 8 8 10 10 12 15 15 20 20 21 23 23 16 10 4 10 11 11 13 12 11 11 9 8 8 7 8
6 6 5 8 10 9 9 7 18 19 24 19 17 9 6 5 8 15 12 10 7 5 10 10 15 7 3 11 20 18 10 11 12 14 16 14 13 13 11 10 8 8 9 9 9 12 12 14 11 11 11 10 11 11 11 10 10 9 9 10 10 13 12 13 13 13 13 14 15 14 11 14 10 9 5 10 9 10 11 10 9 8 10 8 7 5
8 7 6 9 9 9 3 9 19 10 11 14 16 11 12 11 6 9 14 15 14 4 6 5 9 9 7 11 12 15 16 13 12 12 19 16 12 12 13 11 10 9 8 9 11 14 13 12 9 12 10 13 14 14 13 11 11 12 10 9 10 11 10 10 10 12 13 17 14 10 11 11 11 12 10 8 6 8 7 8 8 7 9 8 6 6
11 8 7 4 7 10 6 7 10 12 20 14 6 8 6 4 5 5 7 7 12 12 15 16 14 9 11 9 8 14 17 16 11 11 14 20 14 12 13 14 14 15 15 14 15 14 14 13 12 11 12 14 13 11 10 12 8 11 11 12 14 12 9 11 14 17 17 16 15 14 15 7 7 7 10 10 9 5 6 7 8 7 9 8 7 5
11 7 6 5 8 11 15 14 16 8 11 8 6 14 17 18 14 9 4 6 11 5 6 14 10 5 14 11 11 13 15 14 12 10 9 12 14 15 17 18 19 17 17 18 18 18 16 13 13 14 12 12 13 8 7 5 6 7 9 9 8 11 10 13 13 14 16 16 17 14 15 13 12 11 8 5 5 3 3 8 7 7 7 10 9 6
14 5 6 8 8 8 11 7 5 10 8 12 6 17 13 13 14 7 9 10 10 5 9 5 14 18 18 16 15 12 13 15 16 13 15 17 15 16 17 18 18 17 19 21 19 18 19 20 17 15 12 9 8 9 9 8 6 6 9 11 9 9 10 9 11 12 13 15 15 14 13 9 8 9 9 4 7 7 4 6 6 7 8 8 9 9
8 9 6 3 3 5 9 4 3 5 13 8 12 8 14 14 10 16 11 5 4 11 4 4 17 23 18 16 12 13 13 13 11 13 14 17 18 20 20 21 19 24 22 21 22 21 20 19 21 22 22 20 17 14 13 12 12 9 8 9 9 9 10 9 10 12 13 11 10 12 10 9 4 7 9 9 8 8 3 4 5 5 4 6 7 7
6 7 7 2 3 9 5 5 6 8 8 10 14 12 10 10 17 13 6 5 3 9 14 11 9 15 16 14 12 12 13 13 13 15 17 18 21 20 21 22 23 23 22 22 19 19 21 22 20 20 21 21 21 21 17 16 13 12 10 9 8 8 9 7 10 12 11 10 11 10 9 9 11 10 8 6 7 8 10 8 5 4 4 4 4 4
8 7 9 10 8 6 8 5 5 15 7 12 10 12 10 12 8 12 10 12 8 5 13 21 15 14 11 10 14 12 10 13 14 17 19 19 18 19 22 23 22 20 21 21 20 19 20 21 20 19 21 22 21 20 19 17 17 14 12 13 14 14 14 12 12 11 9 9 9 8 8 10 10 3 4 7 10 13 12 10 7 6 6 6 6 5
8 9 10 6 7 9 12 15 11 11 17 18 14 15 14 7 10 6 12 11 19 18 14 17 18 14 11 9 18 18 20 20 20 18 19 16 16 18 22 22 20 19 18 18 19 19 20 20 19 20 22 21 20 19 19 17 18 19 20 17 16 15 13 13 12 13 11 10 11 10 8 7 12 9 10 10 7 8 4 9 10 6 7 7 6 7
11 6 8 11 8 6 14 18 8 19 20 17 16 17 16 13 7 4 13 6 12 13 11 14 13 10 6 6 15 15 21 19 17 16 19 19 16 15 22 21 19 18 18 17 18 18 21 18 19 20 18 16 17 18 18 18 20 22 21 20 20 19 20 21 19 18 17 14 12 11 9 8 9 12 12 9 7 4 7 10 12 7 7 7 8 7
5 10 9 7 8 4 8 8 6 10 11 11 11 12 13 11 3 8 7 9 13 19 18 12 8 6 3 7 22 17 22 18 17 15 16 17 15 16 18 19 16 16 15 17 20 18 18 18 16 17 16 16 18 18 16 16 19 18 16 17 14 17 17 17 16 17 18 17 16 13 9 5 5 5 6 5 4 5 9 8 7 9 9 10 8 10
5 11 12 9 9 5 9 11 7 9 8 6 2 5 6 7 5 12 9 10 5 4 12 15 16 8 11 13 20 17 19 17 16 15 12 12 14 14 15 17 16 15 15 17 21 18 17 16 18 17 16 14 13 13 12 15 16 13 12 13 13 16 16 17 16 16 16 15 14 13 14 14 11 7 6 7 6 6 4 4 5 6 6 6 11 13
9 9 6 4 13 8 5 5 6 5 7 2 6 10 11 7 6 18 16 17 13 23 25 22 18 17 17 18 18 18 21 21 18 19 18 16 13 14 16 15 14 15 16 15 16 18 15 17 18 19 18 17 14 12 14 17 12 10 16 15 17 15 16 16 17 17 14 14 12 11 11 12 13 14 14 14 13 12 10 11 11 12 11 12 15 16
8 9 8 7 5 5 7 5 9 6 2 4 4 11 13 8 12 12 16 15 12 11 22 23 19 16 19 24 17 14 19 17 19 17 14 10 9 11 14 15 15 14 15 11 12 12 12 13 12 15 13 10 14 17 17 14 10 15 14 13 15 15 16 17 18 17 17 18 17 17 16 15 14 13 13 13 13 15 15 14 11 11 12 8 9 10
11 9 7 7 8 7 4 5 7 5 5 13 9 12 17 10 10 7 9 7 10 11 18 24 18 16 17 16 21 20 18 22 22 16 12 10 8 9 11 11 10 10 11 8 10 10 8 9 9 7 9 8 10 15 16 12 13 13 14 16 14 15 16 17 19 17 16 16 17 18 17 16 16 16 16 15 17 17 16 15 14 14 10 9 9 6
6 6 7 10 6 4 9 9 6 4 5 2 3 5 4 7 8 6 6 5 7 8 7 25 23 22 18 16 16 19 14 28 19 9 7 7 8 10 8 9 8 7 7 7 6 6 6 6 6 7 11 13 13 12 11 11 12 13 16 15 14 17 16 17 16 13 14 14 14 15 15 16 15 15 14 14 14 12 11 10 10 10 9 8 11 11
16 11 8 11 8 5 7 10 5 7 6 2 8 11 7 4 5 5 9 7 4 7 7 16 22 19 22 24 20 10 7 16 12 10 8 7 7 6 8 8 8 6 4 3 5 8 7 7 8 12 12 14 15 12 10 11 11 13 14 13 13 13 15 14 13 12 12 11 11 13 14 15 17 16 16 16 14 12 11 11 11 11 13 14 11 10
18 14 13 14 7 4 6 7 5 5 5 3 8 10 10 9 5 6 8 9 8 13 15 16 21 20 16 11 7 8 16 21 18 13 10 9 10 9 11 10 9 9 11 9 6 4 4 6 11 15 15 14 11 8 9 10 13 12 11 11 12 15 14 12 10 9 10 11 12 12 14 13 14 14 15 15 16 16 15 14 14 13 12 13 13 15
11 10 13 8 4 8 9 6 7 3 5 4 7 10 12 6 4 10 12 8 10 11 12 13 16 12 10 8 6 10 4 16 17 15 10 7 8 5 3 4 9 12 16 13 11 8 10 12 13 13 11 9 9 9 8 9 12 12 10 10 13 13 10 9 10 11 11 12 12 12 12 11 11 11 11 10 10 11 12 14 16 16 17 17 17 16
8 5 6 5 10 6 3 8 5 2 5 11 12 5 6 6 7 8 4 3 11 11 8 11 12 6 7 10 13 18 18 17 17 15 13 9 8 7 8 9 10 11 8 10 10 11 12 12 11 11 10 8 9 8 8 9 14 13 14 17 19 15 13 12 11 11 11 12 11 11 11 10 9 8 8 8 9 9 9 10 10 11 12 14 15 16
5 8 3 4 4 4 8 9 6 7 9 18 15 7 11 13 5 4 8 12 11 15 15 11 10 11 15 17 16 19 19 17 17 18 16 13 13 12 10 11 10 9 9 10 12 9 10 10 9 8 5 6 6 7 10 14 17 17 17 18 13 12 12 12 12 12 11 11 10 9 8 8 9 10 9 9 8 7 6 6 7 8 9 10 11 10
4 11 3 4 4 6 6 6 6 4 8 18 10 10 7 3 5 8 15 15 12 12 15 17 12 11 15 20 18 16 15 17 15 14 13 13 12 11 10 9 9 9 8 7 8 8 7 8 5 4 4 7 10 11 12 13 15 15 16 12 8 10 12 13 12 12 13 12 11 11 10 9 9 7 6 7 7 8 8 10 9 8 9 9 10 11
11 8 4 11 7 6 6 9 10 9 9 11 14 13 11 14 14 13 18 14 14 13 9 18 15 13 15 19 18 17 18 13 13 11 13 9 11 11 11 9 9 9 8 7 8 9 8 5 4 12 14 14 15 15 12 10 14 12 11 6 6 9 10 9 10 11 11 11 9 10 9 9 10 9 9 9 8 9 9 8 9 10 9 9 10 10
5 13 12 23 20 19 19 12 10 11 14 15 13 13 16 16 15 14 16 20 13 12 12 16 12 14 14 12 19 12 12 11 13 12 12 10 10 7 8 9 10 8 6 7 8 9 7 7 8 11 10 11 9 11 10 11 12 12 4 2 5 6 7 7 8 8 7 7 7 9 9 10 9 9 9 9 8 8 8 8 9 9 9 9 10 8
3 2 10 17 8 10 11 3 14 13 10 13 14 14 14 14 14 14 18 17 15 14 17 15 16 15 15 14 14 13 11 11 11 10 10 10 9 7 7 8 7 8 8 7 6 6 8 8 10 9 9 10 7 9 8 8 7 6 3 5 5 6 8 10 10 10 9 10 9 9 10 10 11 11 11 10 11 10 10 10 9 8 8 8 9 9
6 4 18 6 7 11 12 9 9 9 10 9 12 15 14 13 13 12 13 11 12 12 13 13 13 13 11 13 11 14 11 9 9 7 10 8 8 8 9 9 9 9 8 7 7 6 6 7 8 8 9 9 6 7 7 7 6 5 5 5 6 7 10 11 11 11 10 11 10 10 9 9 9 10 9 9 9 11 11 10 9 9 9 9 9 10
3 5 7 4 14 9 10 9 14 13 10 7 8 8 11 11 12 11 11 13 12 12 10 10 10 8 8 10 10 14 14 11 10 11 12 8 9 9 9 8 7 7 8 10 9 5 5 3 7 7 10 7 6 8 9 8 8 9 9 8 8 10 11 10 9 11 12 11 11 11 10 10 9 9 10 9 9 7 6 9 10 10 9 7 5 3
12 10 6 14 15 11 11 12 11 15 7 3 6 9 8 6 9 10 9 12 11 11 10 12 9 8 10 8 10 13 14 12 12 14 14 12 9 6 7 8 7 7 8 7 7 6 7 3 7 8 9 7 8 10 9 9 9 9 7 5 6 8 7 6 6 6 7 9 9 9 10 10 11 10 11 12 12 13 11 6 9 10 9 10 8 9
10 8 10 12 17 12 7 9 8 11 9 9 11 7 7 6 8 7 6 6 7 11 11 11 9 10 11 7 9 15 14 16 14 14 13 10 8 6 6 7 8 9 8 6 6 6 5 6 6 8 10 10 10 9 7 7 6 5 4 2 2 3 4 1 1 3 6 7 8 9 10 10 10 10 10 11 11 11 13 14 8 9 12 11 10 10
Wind_Speed
3 5 7 10 10 3 3 5 7 7 6 6 5 4 7 6 8 5 9 6 2 2 7 10 10 12 14 16 15 11 5 4 8 9 7 10 12 13 12 13 12 12 11 9 10 9 10 10 10 10 11 11 11 11 12 13 12 9 8 7 6 5 8 9 7 8 9 6 5 3 5 6 5 5 4 4 3 4 4 4 4 4 4 4 3 3
4 7 12 9 3 5 7 7 6 5 5 6 7 7 9 6 9 8 12 5 3 3 5 10 12 13 16 16 14 11 3 5 7 11 13 12 12 13 15 13 12 9 6 11 11 11 10 10 12 11 10 12 14 10 13 15 13 9 8 7 6 6 7 8 9 8 9 7 7 6 6 3 5 4 5 4 3 4 3 3 4 4 4 4 4 4
4 12 8 6 9 7 6 6 6 6 6 6 7 8 7 10 7 14 9 2 1 2 8 9 12 13 17 15 13 11 9 7 9 16 18 19 15 11 12 12 12 10 9 9 9 10 10 13 13 11 11 12 12 13 15 13 10 9 8 7 7 6 8 7 8 6 6 4 5 5 5 5 2 1 3 4 4 4 5 4 4 4 4 5 4 4
7 8 13 10 5 5 6 6 5 5 4 6 7 4 8 8 4 9 4 3 5 1 6 8 9 12 14 10 11 12 9 7 6 14 18 19 19 17 17 17 15 12 13 13 11 10 11 13 10 9 10 10 7 7 7 6 9 9 8 8 8 8 7 8 8 7 6 4 4 3 5 4 4 3 2 3 4 4 4 3 3 3 4 3 3 3
10 13 2 6 6 7 9 8 6 5 7 6 6 7 7 9 8 7 6 6 6 9 1 3 1 4 4 8 5 9 1 3 0 7 10 12 14 14 12 11 15 16 13 13 11 10 10 9 6 8 14 11 7 4 2 4 8 9 12 11 11 9 9 8 8 8 5 4 4 4 5 5 6 4 4 5 3 4 4 4 3 4 3 3 3 3
10 17 3 4 8 7 7 8 8 6 7 6 7 11 13 14 10 6 6 5 7 8 5 4 3 3 5 2 8 5 2 2 2 10 14 12 8 12 13 12 9 10 9 12 12 15 16 17 15 13 15 12 7 7 4 8 7 6 8 8 8 7 8 9 8 6 4 6 7 6 7 7 6 6 6 6 7 4 5 6 3 2 3 3 3 3
10 9 5 10 8 8 9 9 10 8 8 6 7 8 13 11 5 4 5 2 3 4 7 3 1 2 5 1 1 0 1 0 2 4 11 12 12 13 12 11 12 13 13 13 13 16 15 15 16 17 17 14 12 10 12 9 2 2 4 6 7 7 7 7 6 6 7 7 7 9 8 7 8 8 3 3 4 6 3 4 4 4 3 3 4 3
4 8 7 7 6 8 6 8 10 9 7 6 4 6 8 5 3 4 3 2 6 3 6 2 3 2 1 2 2 1 3 2 4 8 5 4 10 12 11 12 14 13 14 16 17 16 16 14 12 12 13 14 14 11 7 9 4 7 9 9 7 5 4 5 4 7 9 9 8 9 8 8 8 7 6 6 5 2 3 5 4 5 3 3 3 3
5 6 7 8 7 7 9 12 12 8 7 5 6 7 5 5 4 4 3 4 4 3 9 8 2 1 1 5 3 2 2 6 9 6 9 11 11 13 13 14 16 14 15 14 14 14 12 10 16 16 15 12 16 16 11 10 9 9 11 11 8 7 6 5 7 8 9 9 9 10 8 8 6 7 6 5 4 3 3 5 4 5 4 2 1 2
4 9 9 11 7 8 11 12 13 10 6 7 6 4 3 1 1 3 4 3 2 1 7 7 0 1 3 5 5 4 1 7 3 4 6 10 15 15 12 13 15 13 12 12 13 13 14 14 12 11 11 12 14 15 12 10 10 10 11 11 9 7 7 6 7 8 8 9 9 9 8 9 6 6 6 6 5 4 4 6 5 4 5 3 3 2
9 8 7 4 6 10 10 14 14 12 13 3 4 2 4 2 1 1 3 2 2 3 7 7 1 2 1 3 3 4 3 6 6 6 6 9 11 12 15 17 14 13 13 12 12 14 14 13 14 10 10 9 11 15 15 13 12 12 11 11 9 8 6 5 7 8 9 7 8 9 8 9 8 8 8 7 6 4 4 6 4 4 4 3 4 4
7 6 4 3 9 5 7 3 3 10 6 3 1 2 2 7 3 0 2 2 2 3 7 7 4 5 2 4 8 8 6 13 16 13 14 14 13 13 13 12 13 14 14 15 11 13 12 10 8 8 9 11 11 13 15 13 12 12 11 10 10 7 6 5 5 6 8 7 7 8 10 10 10 10 9 10 8 7 6 6 5 3 5 4 4 4
5 5 4 8 4 10 5 8 4 2 3 2 2 4 3 3 3 2 2 1 2 5 4 3 8 2 1 1 7 10 3 10 4 16 19 16 15 14 13 13 12 12 14 14 10 11 11 13 12 12 13 12 11 11 13 14 12 11 11 12 12 9 6 4 4 6 7 6 7 8 9 9 9 9 9 8 7 5 7 6 5 4 6 3 5 5
8 6 4 5 4 4 5 6 1 2 1 2 2 3 3 2 2 2 2 1 2 5 6 1 1 1 1 2 10 8 7 9 15 9 6 12 16 15 14 12 11 11 13 12 11 11 12 12 12 13 12 12 11 10 10 8 9 10 9 10 10 9 6 3 3 4 5 4 6 7 8 8 7 8 8 7 7 6 6 6 6 6 6 5 5 4
3 6 7 3 2 1 4 7 9 6 3 6 3 8 8 6 3 2 2 2 3 6 3 5 2 3 4 2 8 8 9 3 13 17 13 9 7 6 6 8 10 12 11 11 11 11 10 10 10 9 10 11 10 9 5 2 3 3 6 7 8 8 5 2 2 2 4 3 4 4 4 6 6 7 7 7 7 7 7 6 6 5 5 6 5 6
6 6 8 5 5 3 5 5 6 4 1 2 2 4 4 7 6 3 5 4 1 0 2 3 2 1 5 0 4 11 10 7 4 8 13 12 8 7 7 7 10 10 10 10 9 8 7 5 4 2 4 5 4 4 5 1 3 5 6 7 7 7 6 3 1 1 3 3 4 5 5 6 7 7 7 6 6 6 7 7 7 5 4 5 5 4
1 4 5 6 3 6 10 4 3 6 3 3 2 3 9 7 9 4 2 1 5 3 0 0 5 6 4 7 7 11 12 6 5 7 8 7 7 7 8 6 5 6 7 9 8 8 7 4 2 0 1 3 5 6 5 1 0 2 7 8 9 8 6 4 3 3 4 4 5 5 5 5 6 6 6 7 6 5 5 6 5 6 5 4 4 4
3 6 6 1 6 4 7 7 5 7 8 2 1 7 1 3 5 5 4 1 2 3 2 2 4 2 2 1 1 9 12 7 6 7 8 7 6 6 4 3 3 4 4 4 3 2 2 1 2 2 2 4 5 4 6 4 3 2 1 6 9 8 7 4 4 3 2 3 4 4 3 3 6 5 4 5 6 6 7 6 6 5 6 5 4 4
2 6 9 8 9 7 2 1 3 3 3 8 7 3 1 1 2 3 4 0 1 0 1 2 1 0 1 2 1 4 11 13 13 10 9 8 6 5 4 3 2 2 3 4 6 5 3 2 3 4 4 6 6 5 5 5 4 4 3 4 7 8 7 5 3 2 2 2 3 4 5 6 6 6 6 6 7 7 8 7 7 6 6 5 4 5
1 2 7 4 0 2 4 4 2 6 7 2 2 2 2 5 2 2 4 4 6 2 2 2 3 1 1 0 2 4 3 11 14 12 10 9 8 4 3 3 3 2 5 7 8 8 7 7 6 5 6 6 5 5 5 6 6 6 5 6 6 6 6 5 5 5 6 6 4 3 2 4 7 6 7 7 8 8 9 8 7 7 6 6 4 4
2 1 3 4 5 1 1 3 3 0 1 4 3 1 0 1 2 4 1 2 4 5 5 3 0 1 1 3 3 4 4 8 10 11 9 8 8 7 5 4 4 6 6 7 8 9 9 8 7 6 6 6 5 5 5 6 7 5 5 6 5 7 6 7 6 8 9 10 12 12 10 8 2 7 6 7 8 8 7 6 6 6 6 5 5 5
1 2 3 5 4 1 4 8 7 9 6 2 2 3 3 2 5 4 6 2 3 5 3 5 4 1 2 4 5 4 2 6 8 10 9 10 9 7 6 6 5 5 6 7 7 8 9 10 8 7 6 6 6 5 6 5 6 6 5 4 5 6 6 8 9 9 8 8 10 10 7 4 5 2 5 7 7 7 6 6 6 5 5 5 4 5
2 2 1 2 1 1 5 2 13 13 14 10 6 3 1 1 4 5 3 3 3 1 5 4 7 3 0 6 8 8 5 7 6 7 9 8 8 7 6 6 4 4 4 6 6 6 8 9 7 7 7 7 7 7 7 6 6 5 5 6 6 8 8 7 7 6 6 6 8 6 5 5 5 5 3 6 6 6 5 5 4 4 6 5 4 3
4 2 2 4 5 3 1 5 10 6 6 6 6 4 4 3 1 4 4 6 6 0 2 1 2 2 4 7 6 8 9 7 5 5 8 8 7 7 8 6 6 6 5 6 6 7 7 7 5 6 7 8 8 9 8 7 6 7 6 5 6 7 5 6 6 8 8 6 6 6 7 7 4 7 6 5 3 6 4 4 4 4 5 5 4 4
1 2 3 1 1 1 1 4 5 6 7 3 0 3 2 1 2 2 2 1 3 6 7 7 5 3 5 5 5 4 10 10 5 7 5 5 7 8 8 9 9 9 9 9 9 9 9 9 7 6 7 8 8 6 5 5 5 3 4 5 6 6 6 7 9 10 10 10 10 7 7 4 4 5 4 5 5 2 4 4 5 4 6 5 4 4
4 2 2 1 3 4 4 5 3 3 4 2 1 4 8 11 7 3 2 1 4 2 2 3 4 1 7 5 5 6 7 8 7 7 5 3 5 8 10 11 12 10 9 11 11 12 11 8 8 9 8 7 7 4 4 3 4 3 3 5 4 5 6 8 8 8 7 8 9 7 7 6 4 7 5 1 1 2 1 5 4 4 4 6 6 4
2 0 2 3 2 3 4 2 3 4 4 5 1 9 5 5 7 5 3 5 4 2 5 1 7 11 9 9 9 8 8 9 9 8 8 9 9 9 10 11 11 10 12 12 12 10 12 13 12 10 8 5 4 5 4 3 4 3 4 5 5 6 5 5 7 7 7 8 10 8 7 5 2 4 6 2 4 4 2 3 4 4 5 5 5 6
2 2 1 2 0 2 4 2 1 3 6 3 5 3 7 8 5 9 5 1 1 5 1 0 11 13 11 10 8 8 8 8 7 6 8 8 10 11 12 13 13 13 13 12 13 13 11 9 10 10 10 10 9 9 8 6 6 3 3 5 5 5 5 5 6 7 8 7 5 6 6 5 2 2 3 3 2 3 2 2 2 4 3 4 4 5
2 2 4 1 1 4 3 2 4 5 5 4 5 5 6 6 10 7 1 2 1 3 6 7 5 10 10 9 6 7 7 7 8 9 11 11 11 11 13 14 13 13 13 14 11 10 10 11 10 11 11 10 11 11 10 9 7 6 6 6 5 5 5 3 5 7 7 6 7 6 6 5 4 2 2 4 5 5 6 5 3 2 2 3 3 2
2 3 3 2 2 1 5 4 2 9 4 7 7 5 5 9 5 7 5 4 5 3 5 12 10 7 5 6 8 6 6 8 9 10 10 12 11 12 14 13 13 13 13 12 10 9 10 11 11 11 12 13 13 12 11 10 9 8 7 8 8 8 7 7 7 6 5 6 5 4 4 4 3 1 2 5 6 7 6 6 4 4 4 3 4 3
3 1 3 3 2 5 8 9 7 7 11 10 9 10 10 4 5 4 6 7 13 11 9 11 11 7 5 3 10 8 10 10 12 12 12 10 10 11 14 13 12 12 11 11 10 11 12 13 12 13 14 14 13 13 11 11 11 11 11 10 10 9 7 7 7 8 7 6 7 6 4 3 3 4 7 6 5 3 2 3 4 4 4 4 4 4
5 0 1 3 3 3 4 7 3 10 11 11 9 12 11 8 3 0 3 2 6 8 8 10 7 3 3 3 8 8 11 13 11 9 10 8 9 10 13 13 12 11 10 9 10 11 13 12 12 12 11 10 11 11 11 11 12 13 12 12 12 11 12 12 12 11 10 9 7 7 6 5 5 5 5 4 3 3 3 2 2 2 3 5 6 5
2 3 4 3 4 1 5 5 3 3 6 6 6 6 8 7 2 2 3 4 5 12 10 7 4 2 1 3 11 10 10 12 11 7 8 9 8 10 11 11 10 10 10 10 12 12 11 11 10 11 11 10 11 11 10 10 12 11 10 10 8 10 11 11 10 11 11 11 10 8 6 4 3 3 3 1 0 1 1 1 3 3 4 5 5 6
2 6 4 4 3 1 6 6 3 3 2 1 0 3 3 4 1 5 3 3 4 2 4 6 9 5 7 7 11 9 10 9 7 7 6 6 8 9 9 10 10 9 9 10 11 11 8 9 10 9 10 9 9 8 7 9 10 8 7 8 8 10 10 10 10 10 10 9 9 8 9 9 7 5 2 1 2 2 2 2 3 3 4 3 4 4
6 5 3 1 4 3 2 3 2 1 1 1 4 6 7 2 4 12 11 12 8 14 16 13 12 11 10 9 10 8 11 13 12 11 11 10 7 7 10 10 8 9 9 10 10 12 10 10 10 13 12 11 9 8 9 10 8 7 10 9 11 9 10 10 10 10 9 8 7 7 7 7 8 9 8 8 8 7 6 4 4 5 4 5 6 5
5 5 3 3 2 1 3 1 2 1 0 2 1 7 6 3 5 6 11 10 6 7 14 14 12 10 12 11 9 7 8 11 12 10 8 5 5 6 9 9 10 7 9 7 8 8 7 8 8 8 8 6 8 9 10 9 6 9 9 8 9 9 10 10 11 11 10 10 9 9 8 8 8 8 8 8 8 9 9 9 8 6 3 2 2 5
7 4 3 2 2 2 1 2 3 1 1 8 3 5 5 3 4 3 3 3 4 4 8 14 12 10 10 9 11 10 9 11 12 8 7 6 3 3 6 6 6 6 7 5 6 6 5 6 6 4 4 5 4 6 8 7 7 7 9 10 8 9 9 10 11 10 10 9 9 10 10 10 10 10 10 9 10 10 10 9 9 9 6 5 5 4
2 2 3 4 1 2 4 4 1 1 0 0 2 3 1 2 3 3 2 3 4 5 3 14 15 14 12 10 9 11 8 14 8 3 2 2 3 5 4 4 4 4 4 4 4 4 4 4 4 4 5 8 9 7 6 7 7 8 9 9 8 9 10 10 9 8 8 9 9 9 9 9 9 9 8 9 9 8 7 7 6 6 5 5 7 7
8 6 5 6 3 2 3 4 1 2 1 1 5 6 4 2 3 1 4 3 1 5 4 9 14 12 14 15 13 6 2 7 4 4 2 1 1 2 5 6 5 4 3 3 4 6 5 4 5 8 7 8 10 6 5 5 6 8 9 8 8 8 9 9 7 7 8 7 7 8 9 9 10 10 10 10 8 7 7 7 6 6 5 4 4 4
10 6 5 6 3 1 3 3 2 0 1 1 4 5 6 4 3 2 3 3 4 8 9 10 13 13 10 7 4 3 7 11 9 6 5 3 3 4 5 6 6 6 8 6 4 3 3 4 7 7 7 8 6 4 5 4 7 7 7 6 6 8 8 7 7 6 6 7 7 7 8 8 9 9 9 9 10 10 8 5 5 7 7 8 7 8
4 4 6 4 2 5 5 2 2 1 1 2 4 7 7 4 1 4 5 3 6 7 8 8 10 8 6 5 3 4 2 7 9 8 6 4 4 3 1 2 3 7 10 8 6 5 6 7 8 8 6 5 5 4 4 5 7 7 6 6 7 8 6 5 6 7 7 7 7 7 8 7 7 7 7 6 6 6 7 8 9 9 9 8 7 7
3 2 2 3 5 3 1 4 2 1 1 6 6 4 3 2 1 4 1 1 7 7 5 7 8 4 4 5 7 9 10 10 11 10 8 5 3 3 5 6 7 8 5 4 6 7 7 7 7 7 7 5 5 5 5 6 9 8 9 10 12 9 7 7 7 7 7 7 7 7 6 6 5 4 4 4 4 5 5 6 6 6 7 8 9 10
2 2 1 2 2 1 3 3 3 1 2 11 10 2 5 2 1 2 4 7 6 8 8 5 6 6 9 9 10 12 12 10 10 10 10 8 8 7 6 7 6 5 5 6 6 6 6 6 6 5 4 4 4 5 7 10 11 11 10 11 8 7 7 7 7 7 7 7 6 5 4 4 4 3 3 3 3 3 3 3 4 5 5 6 6 7
1 3 1 1 0 2 2 2 1 1 4 11 3 4 3 1 1 3 7 8 7 6 8 8 6 5 9 12 11 10 10 11 9 8 8 7 7 6 7 6 5 5 4 4 4 4 4 5 3 3 4 5 7 7 8 8 10 9 10 8 5 6 7 8 7 7 8 7 6 6 5 5 4 4 3 4 3 3 3 4 3 3 4 4 4 5
6 3 1 4 3 1 1 3 3 2 3 5 7 7 6 9 8 5 10 7 8 6 4 9 8 7 9 12 11 11 11 8 9 7 8 6 7 7 7 6 6 5 4 4 5 6 5 3 4 8 9 9 10 9 8 6 9 8 7 3 4 6 6 6 6 7 7 7 6 6 6 5 6 5 5 5 4 4 3 4 3 4 3 3 4 4
2 6 6 8 6 10 9 6 4 5 7 9 8 6 9 9 8 9 10 11 8 7 6 8 8 8 7 6 11 7 7 7 8 8 8 7 7 5 5 6 6 4 3 4 6 6 5 5 6 7 7 7 6 7 6 6 7 7 2 1 3 4 4 5 5 5 4 4 4 5 5 5 5 5 5 5 4 4 4 4 4 4 4 4 5 3
1 0 3 6 3 4 3 2 7 6 5 8 8 8 8 8 8 8 11 9 9 9 10 10 10 9 9 9 9 8 7 7 7 7 7 6 6 4 5 5 4 4 5 5 4 4 5 5 6 6 6 6 3 4 4 5 4 4 2 3 3 4 4 4 4 4 4 5 4 4 4 5 5 5 4 4 4 4 4 4 4 3 3 3 4 3
2 1 8 3 4 4 4 5 5 3 4 4 6 8 7 8 8 8 8 7 7 8 8 8 8 8 8 8 7 9 7 5 6 5 6 5 5 4 5 6 6 6 6 5 5 4 5 4 5 5 6 5 3 4 4 4 4 3 3 3 2 3 5 5 5 5 5 5 3 3 3 3 4 4 4 4 4 6 6 6 5 5 6 5 4 3
1 2 1 1 5 3 7 6 7 6 5 3 3 4 5 6 7 7 7 8 7 8 7 6 5 5 5 6 7 9 9 7 7 7 7 5 5 5 4 4 5 5 5 6 5 3 4 3 5 5 6 4 3 4 5 4 3 3 3 3 4 5 6 5 5 5 5 5 5 6 5 5 5 5 6 5 5 4 3 5 6 6 6 4 3 2
5 4 0 6 7 5 5 6 6 6 1 1 2 5 4 3 5 6 6 8 7 7 6 8 6 5 5 5 7 8 9 7 8 9 9 6 5 4 4 5 4 5 5 4 4 4 5 2 4 6 6 4 4 5 5 5 5 5 4 4 4 5 5 4 3 4 4 5 5 5 5 6 6 6 6 6 6 6 5 5 6 7 6 6 7 8
5 3 4 5 7 5 3 5 3 6 5 6 7 4 4 3 5 5 4 4 4 6 6 7 6 6 7 5 5 10 9 10 8 8 8 6 4 4 4 4 5 5 5 4 4 4 3 4 4 5 5 4 5 5 4 4 4 3 2 1 1 2 3 1 1 2 4 4 5 5 6 6 6 6 6 6 6 6 7 7 4 7 10 10 9 9
Wind_Direction
130 192 218 222 233 223 262 217 227 246 271 288 294 288 266 262 273 273 268 267 250 262 243 243 242 239 241 234 236 232 225 211 145 158 156 158 157 165 170 173 173 179 176 143 140 144 143 130 125 127 130 127 123 134 144 163 166 159 172 150 134 128 140 149 152 155 155 212 171 156 171 180 187 187 181 174 169 173 176 170 166 164 154 143 133 136
129 210 233 230 206 197 223 225 237 265 256 242 260 268 279 273 274 269 273 296 277 209 267 239 239 238 239 235 233 237 160 206 162 153 154 163 168 171 168 166 167 163 126 142 141 152 147 134 129 129 130 132 134 147 156 181 167 151 168 149 139 141 150 162 170 167 164 194 186 168 180 180 177 172 163 164 161 167 159 156 158 151 143 142 149 154
199 225 239 230 217 212 226 231 223 213 243 250 228 255 270 268 266 273 271 283 219 252 261 262 242 236 236 233 231 226 210 212 179 160 166 167 172 168 163 159 155 152 150 142 146 150 151 136 133 131 132 137 146 154 177 176 141 144 159 154 149 158 158 173 175 166 180 196 178 166 170 163 146 167 169 151 155 149 144 154 153 143 144 148 156 157
264 263 235 226 210 202 244 239 246 252 250 234 255 256 247 252 256 288 280 302 296 179 276 282 233 240 239 242 233 233 202 229 181 175 168 169 170 165 164 165 162 155 155 151 151 150 142 137 127 118 119 134 145 130 179 149 144 148 166 160 157 172 167 175 182 179 193 183 165 151 137 131 135 157 137 113 120 116 115 147 160 153 152 154 152 161
221 256 148 201 217 198 229 241 235 234 255 242 220 236 250 259 246 218 272 313 312 315 221 290 257 252 268 228 259 262 281 282 109 154 169 181 165 153 141 148 161 158 141 135 134 115 101 78 68 114 109 117 135 174 182 178 164 169 175 167 167 171 176 182 186 191 175 129 101 90 80 87 77 66 97 107 114 139 149 135 157 186 149 147 158 167
250 252 203 201 212 217 218 249 236 191 245 270 232 217 237 247 251 268 288 337 357 316 316 113 3 271 301 280 230 286 7 229 120 142 166 157 116 132 143 140 99 93 112 119 107 101 104 102 94 100 131 136 112 98 146 226 196 186 173 154 162 172 176 184 194 196 160 152 140 137 134 137 133 136 140 152 160 162 152 171 180 127 137 145 153 170
229 243 171 220 211 217 220 229 238 162 222 234 264 210 225 233 225 241 282 10 308 260 281 73 195 264 333 340 261 312 61 298 40 149 157 144 140 144 139 133 126 121 114 94 96 110 109 121 128 146 151 151 146 164 173 181 206 167 146 154 177 180 185 191 191 184 162 147 155 157 155 155 153 151 180 162 161 161 164 125 150 149 151 155 157 177
217 237 214 221 209 216 219 242 244 175 195 238 239 184 204 209 208 263 275 220 243 254 291 6 129 150 310 292 252 342 56 39 97 83 68 71 126 130 132 133 127 119 102 107 112 117 121 127 135 159 164 158 149 153 176 156 166 177 167 172 180 198 203 197 183 182 165 154 160 153 151 154 151 157 164 166 171 155 125 123 139 141 158 172 173 165
203 237 208 217 210 201 217 222 239 160 177 215 239 212 240 232 221 252 285 270 254 355 291 305 14 44 265 269 314 37 26 26 63 116 115 124 121 126 126 123 122 110 113 114 118 121 124 147 165 172 174 161 144 154 172 170 183 169 172 178 182 190 188 192 184 174 159 155 157 151 148 148 157 149 147 148 139 141 131 105 102 119 144 164 166 190
264 213 224 218 172 209 222 228 227 180 210 255 219 205 221 281 244 215 244 266 316 246 278 285 42 145 291 279 338 343 68 65 105 68 82 120 134 133 125 114 114 112 109 112 125 130 151 178 173 174 162 161 163 152 156 173 176 173 174 181 183 183 182 189 183 161 154 154 150 145 152 146 144 128 123 130 140 142 130 112 111 111 111 126 125 161
250 279 258 216 217 214 203 224 215 191 203 184 158 214 280 311 332 6 210 183 77 233 255 240 277 135 282 280 347 19 9 150 122 83 88 123 122 122 128 132 127 122 122 125 136 151 167 170 164 160 164 172 170 158 162 177 180 174 175 177 179 175 179 198 174 156 156 154 149 148 148 142 142 138 136 133 136 130 109 116 123 119 123 109 102 90
286 276 277 234 221 214 180 228 203 180 193 157 119 175 320 312 25 37 331 81 148 269 257 242 181 138 171 306 351 327 297 172 144 143 142 138 133 134 137 134 131 131 131 138 150 160 162 157 151 152 168 182 183 166 168 178 181 173 169 167 168 167 178 201 179 155 150 150 153 148 149 149 150 148 148 149 154 154 141 137 140 138 103 82 79 70
302 262 235 254 226 210 194 213 293 14 26 150 100 45 143 272 30 324 6 265 195 195 245 194 128 60 57 108 340 329 304 156 130 146 148 144 144 145 145 142 143 138 137 144 158 160 164 163 163 175 183 175 176 180 177 181 180 172 168 169 163 169 168 200 181 166 154 151 155 153 151 151 151 150 149 148 147 151 140 143 137 136 122 107 79 72
275 275 272 265 246 187 128 173 278 334 294 102 189 155 115 205 270 243 272 208 306 279 257 257 317 105 238 51 360 340 307 135 115 100 112 139 144 146 150 147 139 139 144 150 167 175 171 168 177 186 176 170 173 181 181 188 184 174 170 163 159 152 153 182 192 173 147 149 154 154 151 149 150 149 147 147 144 151 142 147 149 152 149 138 133 120
278 320 293 178 262 223 127 168 178 189 161 208 147 154 183 151 162 222 219 218 217 205 277 303 159 222 104 286 336 1 20 48 125 131 136 131 128 125 114 118 129 140 152 164 173 181 175 180 185 179 174 175 177 175 158 157 191 166 146 140 141 136 130 134 188 156 137 116 115 130 131 143 148 146 146 148 148 148 142 153 149 154 147 139 150 133
204 217 254 220 207 186 199 196 169 135 219 237 183 70 108 219 142 182 200 149 226 38 2 10 68 5 99 221 351 58 43 35 41 110 126 127 118 119 124 144 153 154 160 170 170 172 177 183 196 190 185 165 124 78 52 105 172 160 140 127 127 131 124 120 126 156 136 121 106 130 138 158 150 150 145 143 146 149 143 153 148 152 146 144 140 139
230 262 262 282 257 176 209 174 206 129 175 268 87 174 218 184 121 91 17 38 77 53 234 228 79 51 122 57 38 64 67 20 67 87 85 92 109 124 139 147 156 151 155 168 174 175 172 167 171 236 197 70 56 70 66 60 308 189 138 124 124 127 118 122 149 175 168 148 129 149 156 161 144 144 150 150 147 128 123 132 138 137 141 136 131 137
190 254 290 9 310 279 228 202 179 175 149 104 170 244 174 89 110 133 200 241 97 147 251 57 134 167 48 167 349 106 116 153 133 111 107 96 103 113 109 130 159 154 168 149 116 119 168 129 82 65 64 61 55 67 86 45 23 355 58 113 119 125 124 125 139 165 162 120 108 127 128 152 131 123 116 123 121 120 112 114 120 122 125 139 144 131
164 275 280 265 240 284 341 97 338 312 190 164 194 205 115 296 247 318 94 31 101 176 236 341 128 149 135 179 180 201 150 149 152 139 130 124 120 119 111 73 38 67 101 95 77 69 39 41 42 43 59 57 68 70 81 79 71 80 70 87 110 121 127 133 125 117 56 56 118 139 153 148 124 121 124 124 123 121 121 129 135 135 139 128 128 121
25 204 296 303 235 189 24 61 330 295 321 331 84 44 89 107 151 114 202 174 116 213 76 288 54 211 260 212 230 160 208 138 136 138 134 134 129 117 120 132 129 68 60 71 75 65 57 51 46 55 62 65 69 80 79 78 72 77 91 88 89 95 100 91 72 64 51 15 41 80 98 122 123 124 128 129 126 125 131 139 137 137 137 150 133 129
309 93 233 275 306 41 42 329 140 134 67 10 44 349 351 6 210 116 130 128 157 164 171 154 292 266 288 293 108 131 159 146 138 135 141 146 137 122 113 82 80 62 66 76 87 89 85 82 78 68 70 74 76 79 78 77 81 88 87 97 105 106 99 83 63 60 48 40 31 30 22 14 74 126 126 125 124 127 132 138 141 145 149 129 135 131
44 359 206 303 340 57 166 251 99 91 72 83 138 141 205 139 113 179 262 2 90 103 188 140 222 251 275 23 30 64 25 132 143 143 134 138 125 104 71 68 71 85 82 80 78 84 94 98 98 91 78 73 72 67 73 78 87 81 80 86 87 81 72 78 71 78 78 68 68 70 53 4 323 63 118 115 117 122 132 142 145 142 130 136 146 134
153 166 97 288 204 210 164 159 110 102 94 84 65 343 8 139 97 97 157 266 33 71 103 143 120 249 129 78 44 18 56 109 126 126 110 98 90 80 83 78 65 66 88 90 87 68 73 79 78 85 82 77 72 58 49 50 61 67 69 70 76 83 80 92 105 111 114 113 114 117 113 78 358 14 40 103 112 123 139 146 142 141 137 135 136 125
81 64 14 290 307 307 315 104 67 53 69 47 17 5 28 17 214 178 173 194 135 196 61 31 91 203 109 119 110 81 45 42 47 87 103 102 95 93 89 78 70 57 55 67 76 72 63 75 84 82 79 71 63 67 55 41 40 60 60 69 84 91 102 90 80 78 71 68 63 59 55 48 30 15 19 51 78 123 142 142 142 144 140 143 133 145
59 302 114 340 4 344 312 303 50 10 59 90 54 326 328 338 12 262 106 34 112 213 172 133 194 216 149 149 142 123 106 93 44 16 23 60 85 86 85 85 77 71 62 58 58 59 57 52 49 61 76 81 74 67 94 102 101 84 108 105 107 113 111 114 110 108 110 112 114 121 126 142 124 76 350 39 17 85 135 145 142 152 155 140 147 154
103 203 107 96 159 179 203 207 202 114 134 129 43 358 28 30 3 23 166 60 165 308 106 108 133 193 131 138 130 128 115 108 116 104 72 74 93 90 84 81 76 66 66 73 63 57 49 44 41 40 49 70 89 93 70 74 104 107 87 81 86 86 99 110 111 111 116 114 116 135 160 137 123 113 94 57 314 350 192 157 155 155 172 155 154 158
122 57 102 145 146 189 209 212 235 108 73 80 39 48 4 34 34 76 101 93 171 196 76 305 157 130 131 134 133 130 127 128 127 123 119 109 97 84 77 73 73 73 67 61 66 61 54 41 34 30 28 32 57 72 74 77 102 110 100 93 86 84 94 112 116 116 115 117 125 139 127 111 131 111 110 126 356 343 304 219 160 154 172 167 154 160
59 59 339 78 221 264 221 186 262 94 104 132 99 51 47 43 49 52 54 280 232 87 81 255 145 133 149 145 145 136 131 122 111 112 112 96 83 86 87 84 82 75 71 69 63 61 61 58 52 51 50 47 43 41 33 28 30 40 89 100 101 108 115 119 112 113 122 128 126 125 113 124 93 61 100 106 66 340 286 265 198 158 151 146 148 161
115 85 318 33 292 339 31 92 84 67 71 101 96 97 68 66 58 66 343 269 153 162 176 157 134 121 139 143 149 142 130 118 111 104 96 98 96 92 87 81 78 74 73 71 68 68 67 64 60 58 57 55 55 52 46 39 33 37 33 27 42 61 53 67 101 114 123 126 124 116 118 116 130 162 132 98 74 29 16 22 24 32 77 95 104 125
78 41 338 343 288 353 356 2 28 99 86 66 39 49 85 88 92 100 76 42 99 77 108 119 101 75 64 127 135 113 91 95 98 98 93 90 92 96 91 87 81 78 78 79 75 71 69 64 59 54 54 49 48 46 44 40 37 42 51 50 43 39 32 40 41 47 48 69 79 88 101 125 161 156 88 62 67 46 2 12 358 52 38 59 83 78
92 288 8 337 59 22 16 13 350 92 97 75 31 22 11 3 93 87 105 87 83 59 69 84 81 60 354 25 104 104 100 99 93 95 97 97 97 97 95 91 89 85 84 82 76 67 64 59 54 50 49 47 44 44 43 44 49 55 59 60 58 51 48 52 47 42 38 50 67 69 59 42 26 35 47 43 51 99 270 11 345 22 50 34 36 56
43 182 50 46 68 328 12 26 359 115 91 78 38 12 356 347 91 307 107 205 106 122 108 95 71 38 328 358 85 60 78 77 71 75 91 94 95 95 97 94 90 85 77 69 69 64 55 49 46 45 41 38 44 43 44 45 53 55 55 56 58 56 51 49 47 47 41 32 39 52 61 54 43 41 67 59 40 10 6 50 349 16 35 51 23 9
160 106 57 17 71 308 321 360 246 122 81 39 3 340 327 292 248 42 50 74 128 135 123 129 132 77 335 321 87 72 78 78 80 75 85 82 80 86 85 89 86 81 75 69 59 50 47 48 41 40 38 39 36 41 37 46 54 50 51 54 54 63 59 56 52 52 51 46 42 31 32 53 72 72 81 90 73 214 206 129 60 6 44 44 28 6
71 105 134 162 106 277 313 321 341 65 98 180 325 325 322 274 312 94 63 45 15 29 139 122 123 99 65 56 80 76 65 57 65 57 51 82 91 86 85 88 89 91 92 87 86 70 49 51 52 36 27 21 23 31 36 45 55 51 48 53 53 57 60 61 56 56 53 48 41 31 26 32 37 42 53 133 150 126 75 14 40 11 5 54 38 5
115 94 140 171 114 188 271 337 61 148 218 48 8 343 324 325 101 89 68 53 64 95 101 102 105 94 92 96 95 95 100 82 56 48 45 42 43 72 89 83 73 79 85 84 80 86 75 64 53 55 38 26 20 20 33 39 36 49 52 47 52 48 53 53 55 50 49 52 48 42 33 34 36 33 27 24 25 20 19 9 7 11 9 10 0 338
124 100 145 53 104 90 88 174 170 234 51 358 307 330 316 40 5 61 61 24 36 124 123 117 120 119 117 115 107 103 84 89 77 60 47 38 43 72 81 88 96 89 86 86 93 93 97 94 92 90 83 50 31 33 39 30 22 52 57 55 57 52 49 49 48 43 38 39 36 38 37 40 40 39 34 31 27 29 23 21 20 1 4 38 247 261
121 115 94 90 3 142 132 73 106 126 13 7 14 357 25 9 341 355 83 341 353 142 126 119 119 117 113 114 119 121 110 83 66 39 15 24 44 59 100 112 111 105 98 91 95 98 106 109 101 104 111 99 74 49 52 42 35 50 55 54 52 56 54 51 48 40 36 34 29 30 32 34 35 32 28 25 28 25 21 15 7 8 7 359 337 333
68 124 207 98 311 109 133 89 46 32 134 268 263 267 199 202 208 252 115 34 25 54 110 131 132 134 128 132 136 139 128 89 77 64 304 28 48 63 41 67 70 73 82 103 89 91 84 79 79 66 69 76 66 53 48 53 46 46 52 52 46 49 49 53 50 43 40 33 25 25 25 30 34 32 28 31 30 23 15 12 10 10 354 344 332 332
40 67 98 109 137 48 56 108 114 161 229 202 271 289 277 195 232 258 68 38 68 105 126 135 131 143 146 150 164 177 122 100 140 177 188 190 24 32 46 37 39 34 26 47 88 93 81 64 69 69 54 55 60 52 57 60 62 56 49 44 45 47 47 44 42 41 42 36 31 29 27 24 25 24 23 22 18 19 16 9 359 346 354 357 342 328
42 14 26 53 46 59 118 81 105 122 127 274 278 288 290 306 294 88 115 223 162 144 145 148 145 150 163 161 156 134 142 138 167 176 161 144 107 72 73 53 34 38 52 48 43 80 81 87 85 73 67 57 53 47 53 64 70 70 64 53 51 49 42 35 35 41 47 45 41 39 36 32 31 27 25 18 10 7 8 1 7 2 356 353 354 348
3 357 39 77 86 53 73 100 78 338 311 316 294 296 305 296 18 122 201 209 149 141 143 148 145 153 153 155 169 99 31 114 131 137 138 130 116 106 94 94 82 55 48 38 42 54 69 64 68 66 61 63 58 48 47 50 55 51 48 48 47 44 37 35 40 45 48 48 45 44 43 36 36 31 28 27 18 5 1 0 357 354 357 353 349 349
8 58 358 55 33 47 74 92 146 243 268 339 308 313 289 56 75 215 249 330 130 121 121 140 142 151 137 119 107 104 116 120 124 124 115 107 117 105 81 72 64 61 60 52 43 52 56 52 51 45 35 33 40 35 36 43 47 43 39 39 36 29 29 34 35 41 45 47 45 42 40 37 31 37 41 35 26 18 5 350 353 354 352 349 348 347
313 80 7 48 306 34 43 66 45 12 309 346 309 351 16 110 219 144 90 55 98 118 119 106 110 124 114 103 106 116 117 115 118 120 123 125 114 103 95 84 75 75 56 47 43 45 74 72 61 54 50 27 20 19 27 44 52 49 43 39 19 21 35 38 36 36 38 37 37 32 36 35 32 31 36 30 33 42 19 355 1 351 356 357 353 350
350 84 23 28 200 114 59 72 110 279 299 333 31 119 316 288 52 71 88 79 51 82 103 100 84 104 111 114 114 103 106 111 107 111 106 105 107 103 100 97 88 66 53 46 52 48 75 82 70 56 26 14 18 26 41 57 61 55 51 29 357 26 33 34 31 32 31 25 20 15 10 10 12 16 14 11 20 30 31 15 6 1 360 359 358 350
322 125 163 103 340 114 152 112 90 84 32 9 44 76 65 51 54 66 80 74 86 58 71 95 98 94 103 111 107 112 110 113 121 120 114 116 105 98 92 94 97 92 75 55 36 36 35 37 54 48 47 49 54 55 56 63 72 64 57 11 19 39 39 33 30 29 22 13 6 3 355 359 9 10 9 8 17 17 13 8 13 9 348 3 352 348
41 97 108 83 66 76 62 91 122 65 62 56 43 52 67 61 46 58 71 81 56 70 68 88 85 85 78 84 99 86 96 111 104 103 105 107 106 102 96 90 85 84 66 48 34 29 26 45 73 74 67 53 59 68 67 67 73 72 65 12 47 52 55 49 39 33 17 3 359 356 358 12 11 8 5 9 11 14 4 3 3 3 345 354 343 340
271 359 50 105 164 75 88 81 90 103 87 82 75 69 67 66 65 68 75 74 76 69 72 67 77 76 81 80 84 98 98 100 100 104 104 100 95 99 99 95 87 87 80 58 30 41 37 75 82 89 85 75 55 76 78 85 87 118 131 86 77 73 72 61 51 39 22 13 1 0 13 16 2 357 357 2 2 5 359 350 352 347 336 334 335 337
4 47 79 75 55 91 146 140 108 101 88 94 107 97 85 81 80 78 88 91 87 85 86 91 90 85 85 83 86 87 80 80 104 96 89 95 95 83 78 72 63 49 37 39 28 36 56 64 95 90 84 77 60 68 70 65 60 71 85 92 92 81 65 51 45 30 13 1 354 354 360 356 344 350 343 341 348 347 343 340 336 336 321 318 314 331
222 50 115 140 94 62 70 83 105 79 53 39 65 86 112 117 112 105 103 102 100 89 79 65 77 103 97 109 96 86 74 60 72 90 89 76 73 68 66 69 65 68 52 31 7 17 74 94 94 92 87 76 65 68 62 52 43 42 60 67 64 56 51 42 34 26 5 350 353 347 350 347 345 343 342 336 336 331 312 309 316 309 301 281 254 250
54 63 93 84 98 148 171 177 143 101 145 218 143 135 120 112 107 107 102 99 101 101 96 98 80 79 100 103 98 91 89 80 76 82 78 72 65 54 44 43 41 43 35 24 33 49 70 71 107 93 82 72 68 62 49 34 26 22 25 26 50 57 51 39 28 13 343 333 336 327 333 332 331 330 331 328 322 321 312 293 293 291 283 284 282 280
111 168 124 141 156 208 210 175 147 128 134 175 166 166 130 112 94 87 86 101 111 124 126 111 101 73 65 60 92 101 100 100 99 91 81 71 53 45 47 42 35 25 18 10 42 29 51 71 86 93 81 75 70 61 48 33 9 353 351 20 54 71 39 31 340 321 310 321 319 315 313 317 317 316 317 316 315 314 311 312 306 283 283 278 277 281